Weather History for KOZA - May, 2013

Change the Weather History Date:

Tuesday, May 21, 2013

  Actual Average Record
Temperature  
Mean Temperature 80 °F -  
Max Temperature 91 °F 85 °F 91 °F (2013)
Min Temperature 69 °F 60 °F 55 °F (2015)
Cooling Degree Days 15    
Growing Degree Days 30 (Base 50)    
Moisture  
Dew Point 53 °F    
Average Humidity 48    
Maximum Humidity 83    
Minimum Humidity 13    
Precipitation  
Precipitation 0.00 in - - ()
Sea Level Pressure  
Sea Level Pressure 29.84 in    
Wind  
Wind Speed 10 mph (South)    
Max Wind Speed 18 mph    
Max Gust Speed 24 mph    
Visibility 10 miles    
Events      
Averages and records for this station are not official NWS values.
T = Trace of Precipitation, MM = Missing Value Source: NWS Daily Summary

Daily Weather History Graph

Daily Weather History Graph

Search for Another Location

Airport or City:

Trip Planner

Search our weather history database for the weather conditions in past years. The results will help you decide how hot, cold, wet, or windy it might be!

Date:

Astronomy

May. 21, 2013 Rise Set
Actual Time 6:46 AM CDT 8:36 PM CDT
Civil Twilight 6:19 AM CDT 9:03 PM CDT
Nautical Twilight 5:47 AM CDT 9:35 PM CDT
Astronomical Twilight 5:13 AM CDT 10:10 PM CDT
Moon 5:05 PM CDT (5/21) 4:00 AM CDT (5/21)
Length of Visible Light 14h 43m
Length of Day
13h 50m
Waxing Gibbous, 84% of the Moon is Illuminated
May 21
Waxing Gibbous
May 24
Full
May 31
Last Quarter
Jun 8
New
Jun 16
First Quarter

Hourly Weather History & Observations

Time (CDT) Temp. Heat Index Dew Point Humidity Pressure Visibility Wind Dir Wind Speed Gust Speed Precip Events Conditions
12:15 AM 80.6 °F 81.1 °F 59.0 °F 48% 29.80 in 10.0 mi SSW 3.5 mph - N/A   Clear
12:35 AM 80.6 °F 81.5 °F 60.8 °F 51% 29.79 in 10.0 mi South 9.2 mph - N/A   Clear
12:55 AM 80.6 °F 81.5 °F 60.8 °F 51% 29.79 in 10.0 mi South 9.2 mph - N/A   Clear
1:15 AM 80.6 °F 81.8 °F 62.6 °F 54% 29.79 in 10.0 mi SSE 10.4 mph - N/A   Clear
1:35 AM 80.6 °F 81.8 °F 62.6 °F 54% 29.79 in 10.0 mi South 10.4 mph - N/A   Clear
2:15 AM 80.6 °F 81.8 °F 62.6 °F 54% 29.77 in 10.0 mi SSE 10.4 mph - N/A   Clear
2:35 AM 78.8 °F - 64.4 °F 61% 29.77 in 10.0 mi SSE 9.2 mph - N/A   Clear
2:55 AM 78.8 °F - 64.4 °F 61% 29.77 in 10.0 mi SSE 6.9 mph - N/A   Clear
3:15 AM 78.8 °F - 64.4 °F 61% 29.77 in 10.0 mi SSE 6.9 mph - N/A   Clear
3:35 AM 77.0 °F - 64.4 °F 65% 29.77 in 10.0 mi SSE 10.4 mph - N/A   Clear
3:55 AM 77.0 °F - 64.4 °F 65% 29.77 in 10.0 mi SSE 9.2 mph - N/A   Clear
4:15 AM 77.0 °F - 66.2 °F 69% 29.76 in 10.0 mi SSE 11.5 mph - N/A   Clear
4:35 AM 75.2 °F - 68.0 °F 78% 29.77 in 10.0 mi South 6.9 mph - N/A   Clear
4:55 AM 75.2 °F - 68.0 °F 78% 29.77 in 10.0 mi SSE 9.2 mph - N/A   Clear
5:15 AM 73.4 °F - 66.2 °F 78% 29.77 in 10.0 mi South 11.5 mph - N/A   Clear
5:35 AM 73.4 °F - 66.2 °F 78% 29.77 in 10.0 mi South 10.4 mph - N/A   Clear
5:55 AM 73.4 °F - 66.2 °F 78% 29.77 in 10.0 mi South 11.5 mph - N/A   Clear
6:15 AM 73.4 °F - 64.4 °F 73% 29.77 in 10.0 mi South 10.4 mph - N/A   Clear
6:35 AM 71.6 °F - 64.4 °F 78% 29.79 in 10.0 mi South 11.5 mph - N/A   Clear
6:55 AM 71.6 °F - 64.4 °F 78% 29.79 in 10.0 mi South 13.8 mph 19.6 mph N/A   Clear
7:15 AM 71.6 °F - 66.2 °F 83% 29.82 in 10.0 mi SW 10.4 mph 20.7 mph N/A   Clear
7:35 AM 73.4 °F - 66.2 °F 78% 29.84 in 10.0 mi SW 10.4 mph 16.1 mph N/A   Clear
7:55 AM 73.4 °F - 66.2 °F 78% 29.84 in 10.0 mi SSW 11.5 mph - N/A   Clear
8:15 AM 73.4 °F - 66.2 °F 78% 29.84 in 7.0 mi SSW 12.7 mph - N/A   Clear
8:35 AM 73.4 °F - 66.2 °F 78% 29.85 in 7.0 mi SSW 10.4 mph - N/A   Clear
8:55 AM 73.4 °F - 66.2 °F 78% 29.86 in 7.0 mi SSW 11.5 mph 16.1 mph N/A   Clear
9:15 AM 75.2 °F - 66.2 °F 73% 29.86 in 7.0 mi SSW 13.8 mph - N/A   Clear
9:35 AM 77.0 °F - 66.2 °F 69% 29.86 in 7.0 mi South 17.3 mph - N/A   Clear
9:55 AM 77.0 °F - 66.2 °F 69% 29.86 in 7.0 mi SSW 12.7 mph - N/A   Clear
10:15 AM 78.8 °F - 64.4 °F 61% 29.86 in 10.0 mi SSW 13.8 mph 18.4 mph N/A   Clear
10:55 AM 82.4 °F 83.9 °F 64.4 °F 54% 29.87 in 10.0 mi SW 9.2 mph 16.1 mph N/A   Clear
11:15 AM 82.4 °F 82.5 °F 59.0 °F 45% 29.88 in 10.0 mi SW 11.5 mph 17.3 mph N/A   Clear
11:55 AM 87.8 °F - 30.2 °F 13% 29.88 in 10.0 mi West 6.9 mph 17.3 mph N/A   Clear
12:55 PM 89.6 °F - 32.0 °F 13% 29.88 in 10.0 mi West 10.4 mph 17.3 mph N/A   Clear
1:35 PM 89.6 °F - 37.4 °F 16% 29.87 in 10.0 mi NW 17.3 mph 24.2 mph N/A   Clear
2:15 PM 91.4 °F - 37.4 °F 15% 29.87 in 10.0 mi NW 11.5 mph 23.0 mph N/A   Clear
2:35 PM 91.4 °F - 37.4 °F 15% 29.86 in 10.0 mi NW 9.2 mph 20.7 mph N/A   Clear
2:55 PM 89.6 °F - 35.6 °F 15% 29.87 in 10.0 mi NNW 17.3 mph 20.7 mph N/A   Clear
3:15 PM 89.6 °F - 35.6 °F 15% 29.86 in 10.0 mi NNW 11.5 mph 21.9 mph N/A   Clear
4:55 PM 91.4 °F - 35.6 °F 14% 29.84 in 10.0 mi NNW 18.4 mph 23.0 mph N/A   Clear
5:15 PM 89.6 °F - 41.0 °F 18% 29.84 in 10.0 mi North 17.3 mph 23.0 mph N/A   Clear
5:55 PM 87.8 °F - 39.2 °F 18% 29.84 in 10.0 mi North 12.7 mph - N/A   Clear
6:15 PM 87.8 °F - 37.4 °F 17% 29.84 in 10.0 mi NNE 13.8 mph - N/A   Clear
6:55 PM 86.0 °F - 39.2 °F 19% 29.84 in 10.0 mi NNE 17.3 mph 21.9 mph N/A   Clear
7:15 PM 86.0 °F - 39.2 °F 19% 29.85 in 10.0 mi NNE 18.4 mph 23.0 mph N/A   Clear
7:55 PM 82.4 °F - 39.2 °F 21% 29.86 in 10.0 mi NNE 17.3 mph 23.0 mph N/A   Clear
8:15 PM 80.6 °F - 39.2 °F 23% 29.87 in 10.0 mi NNE 11.5 mph 19.6 mph N/A   Clear
8:35 PM 80.6 °F - 39.2 °F 23% 29.87 in 10.0 mi NNE 10.4 mph - N/A   Clear
8:55 PM 78.8 °F - 39.2 °F 24% 29.88 in 10.0 mi NE 10.4 mph - N/A   Clear
9:15 PM 77.0 °F - 41.0 °F 28% 29.89 in 10.0 mi NE 6.9 mph - N/A   Clear
9:55 PM 73.4 °F - 39.2 °F 29% 29.91 in 10.0 mi NE 11.5 mph 17.3 mph N/A   Clear
10:15 PM 73.4 °F - 41.0 °F 31% 29.92 in 10.0 mi ENE 8.1 mph - N/A   Clear
10:55 PM 71.6 °F - 41.0 °F 33% 29.94 in 10.0 mi ENE 6.9 mph - N/A   Clear
11:15 PM 71.6 °F - 41.0 °F 33% 29.94 in 10.0 mi East 5.8 mph - N/A   Clear
11:35 PM 69.8 °F - 41.0 °F 35% 29.94 in 10.0 mi East 4.6 mph - N/A   Clear
11:55 PM 69.8 °F - 42.8 °F 38% 29.94 in 10.0 mi East 5.8 mph - N/A   Clear